Creek Data

    Home     View Charts     View Raw Data     Messages

ID Distance Battery Voltage Battery Current Internal Temp Internal Humidity External Temp Solar Input rssi snr Time Stamp Record
34171 15.1 3.97 -5 44 39 46 0 -74 8 03/05/2025 10:30 PM 15891
34170 15.1 3.97 -5 44 39 46 0 -75 8 03/05/2025 10:15 PM 15890
34169 15.1 3.97 -5 44 39 46 0 -74 8 03/05/2025 10:00 PM 15889
34168 15.1 3.97 -5 45 39 46 0 -75 8 03/05/2025 09:45 PM 15888
34167 15.1 3.97 -5 45 39 46 0 -74 8 03/05/2025 09:30 PM 15887
34166 15.1 3.97 -5 45 39 47 0 -74 8 03/05/2025 09:15 PM 15886
34165 15.1 3.97 -5 46 39 47 0 -74 8 03/05/2025 09:00 PM 15885
34164 15.1 4.03 -5 46 40 47 0 -72 8 03/05/2025 08:45 PM 15884
34163 15.1 4.03 -5 47 40 47 0.1 -74 8 03/05/2025 08:30 PM 15883
34162 15.1 4.03 -5 47 40 48 0 -73 8 03/05/2025 08:15 PM 15882
34161 15.1 3.98 -5 48 40 48 0 -74 8 03/05/2025 08:00 PM 15881
34160 15.1 3.98 -5 48 40 49 0 -73 8 03/05/2025 07:45 PM 15880
34159 15.1 3.98 -5 49 40 49 0.1 -72 8 03/05/2025 07:30 PM 15879
34158 15.1 3.98 -5 50 40 50 0 -75 8 03/05/2025 07:15 PM 15878
34157 15.1 3.98 -5 50 40 50 0 -77 8 03/05/2025 07:00 PM 15877
34156 15.1 3.98 -5 51 41 51 0 -77 8 03/05/2025 06:45 PM 15876
34155 15.1 3.99 -5 51 41 52 0 -75 7 03/05/2025 06:30 PM 15875
34154 15.1 4.04 -5 52 41 52 1.1 -75 8 03/05/2025 06:15 PM 15874
34153 15.2 4.06 0 54 41 53 4.6 -73 7 03/05/2025 06:00 PM 15873
34152 15.2 4.09 -6 58 39 55 4.5 -74 8 03/05/2025 05:45 PM 15872
34151 15.2 4.08 0 59 38 57 5.1 -74 7 03/05/2025 05:30 PM 15871
34150 15.1 4.07 26 56 40 55 4.5 -75 8 03/05/2025 05:15 PM 15870
34149 15.1 4.10 46 57 39 56 4.5 -74 8 03/05/2025 05:00 PM 15869
34148 15.2 4.03 0 57 39 56 5.1 -75 7 03/05/2025 04:45 PM 15868
34147 15.2 4.03 0 58 39 57 5.1 -75 8 03/05/2025 04:30 PM 15867